THOR ABLESTAR DEB, 48816

Orbit data source: Space-Track

THOR ABLESTAR DEB, 48816 is space debris in LEO originally from a launch on Thu, 29 Jun 1961 UTC launched from the Air Force Eastern Test Range (AFETR). Debris objects in space refer to the collection of defunct objects orbiting the Earth. Examples of debris include non-operational satellites, rocket bodies, and fragments generated from explosions, collisions, or faulty payload assembly.

Loading next visibility...
Identifier
48816, 1961-015MU
Orbit
LEO
Country
Flag of USUS
Related business
Manufacturer
Unknown
Mission
Spacecraft
Bus & Motor
Unknown
Mass
Unknown
Launch date (UTC)
1961-06-29 (64 years ago)
Launch vehicle
Unknown
Launch site
Air Force Eastern Test Range (AFETR)
Object type
Payload
Rocket body
Debris
Shape & HBR
Unknown shape, 0.1 m
Radar Cross Section
Small (<0.1 m²)

Expand to show TLE details & history
Last TLE update: 2 weeks ago

TLE from 2 weeks ago
0 THOR ABLESTAR DEB
1 48816U 61015MU  25289.37409470  .00001384  00000-0  81897-3 0  9992
2 48816  66.8055 154.9987 0099750   4.5814 355.6163 14.08176775611502
Epoch: 2025-10-16T08:58Z
TLE epoch observation values (Epoch: 2025-10-16T08:58:41.782Z)
Latitude
0.00006°
Longitude
-4.8101°
Altitude
795.662 km
Speed
7.493 km/s
True Right ascension
10h 19m 59s
True Declination
0° 00' 00"
Sunlit
Object was in daylight at epoch
Visualization orbit readout
Latitude
Unknown
Longitude
Unknown
Altitude
Unknown
Speed
Unknown
Apparent Right ascension
Unknown
Apparent Declination
Unknown
Sunlit
N/A
Visualization observer readout
Local Sidereal Time
08:20:59
Azimuth
Unknown
Elevation
Unknown
Doppler factor
Unknown
Orbital elements
Apogee altitude
936.237 km
Perigee altitude
791.756 km
Semi-major axis
7,242.134 km
Eccentricity
0.00998
Inclination
66.8055°
RAAN
154.9987°
Arg. of periapsis
4.5814°
True anomaly
355.52783°
Mean anomaly
355.6163°
Eccentric anomaly
355.57218°
Mean motion
3.52163 °/min
Orbital period
102.23 mins
BSTAR
0.00081897
Loading maneuver chart data...
Computing Atmospheric mass density...

Documentation

Showing up to 5 results
|